Weather History for Spirit of St Louis, MO

Change the Weather History Date:

Monday, February 6, 2012

  Actual Average Record
Temperature  
Mean Temperature 36 °F -  
Max Temperature 46 °F 42 °F 70 °F (2009)
Min Temperature 27 °F 24 °F -5 °F (2014)
Degree Days  
Heating Degree Days 28    
Moisture  
Dew Point 30 °F    
Average Humidity 87    
Maximum Humidity 100    
Minimum Humidity 54    
Precipitation  
Precipitation 0.00 in - - ()
Sea Level Pressure  
Sea Level Pressure 30.27 in    
Wind  
Wind Speed 3 mph (West)    
Max Wind Speed 12 mph    
Max Gust Speed -    
Visibility 5 miles    
Events Fog    
Averages and records for this station are not official NWS values.
T = Trace of Precipitation, MM = Missing Value Source: NWS Daily Summary

Daily Weather History Graph

Daily Weather History Graph

Search for Another Location

Airport:

Trip Planner

Search our weather history database for the weather conditions in past years. The results will help you decide how hot, cold, wet, or windy it might be!

Date:

Astronomy

Feb. 06, 2012 Rise Set
Actual Time 7:04 AM CST 5:29 PM CST
Civil Twilight 6:36 AM CST 5:57 PM CST
Nautical Twilight 6:04 AM CST 6:29 PM CST
Astronomical Twilight 5:33 AM CST 7:00 PM CST
Moon 4:33 PM CST (2/6) 5:55 AM CST (2/6)
Length of Visible Light 11h 21m
Length of Day
10h 25m
Waxing Gibbous, 98% of the Moon is Illuminated
Feb 6
Waxing Gibbous
Feb 7
Full
Feb 14
Last Quarter
Feb 21
New
Feb 29
First Quarter

Hourly Weather History & Observations

Time (CST) Temp. Windchill Dew Point Humidity Pressure Visibility Wind Dir Wind Speed Gust Speed Precip Events Conditions
12:54 AM 30.0 °F - 28.0 °F 92% 30.32 in 6.0 mi Calm Calm - N/A   Clear
1:54 AM 28.0 °F 24.2 °F 27.0 °F 96% 30.31 in 6.0 mi West 3.5 mph - N/A   Clear
2:54 AM 27.0 °F 23.0 °F 25.0 °F 92% 30.31 in 5.0 mi WSW 3.5 mph - N/A   Partly Cloudy
3:28 AM 28.4 °F - 28.4 °F 100% 30.29 in 4.0 mi Calm Calm - N/A   Mostly Cloudy
3:42 AM 30.2 °F 25.4 °F 28.4 °F 93% 30.28 in 3.0 mi WNW 4.6 mph - N/A   Overcast
3:45 AM 30.2 °F 25.4 °F 28.4 °F 93% 30.28 in 1.8 mi NW 4.6 mph - N/A   Overcast
3:54 AM 30.9 °F 27.5 °F 28.9 °F 92% 30.30 in 0.5 mi NNW 3.5 mph - N/A Fog Light Freezing Fog
4:09 AM 30.2 °F 26.7 °F 28.4 °F 93% 30.28 in 0.2 mi NNW 3.5 mph - N/A Fog Light Freezing Fog
4:54 AM 30.0 °F 26.5 °F 28.9 °F 96% 30.30 in 0.2 mi WSW 3.5 mph - N/A Fog Light Freezing Fog
5:54 AM 30.0 °F - 28.9 °F 96% 30.30 in 0.2 mi Calm Calm - N/A Fog Light Freezing Fog
6:27 AM 30.2 °F - 28.4 °F 93% 30.28 in 0.2 mi Calm Calm - N/A Fog Light Freezing Fog
6:54 AM 28.0 °F 22.8 °F 27.0 °F 96% 30.32 in 0.2 mi West 4.6 mph - N/A Fog Light Freezing Fog
7:54 AM 28.0 °F - 28.0 °F 100% 30.32 in 0.5 mi Calm Calm - 0.00 in Fog Light Freezing Fog
8:54 AM 28.9 °F - 28.9 °F 100% 30.33 in 0.5 mi Calm Calm - N/A Fog Light Freezing Fog
9:54 AM 30.9 °F - 30.0 °F 96% 30.33 in 0.5 mi Calm Calm - N/A Fog Light Freezing Fog
10:54 AM 33.1 °F 27.7 °F 32.0 °F 96% 30.32 in 0.5 mi West 5.8 mph - N/A Fog Fog
11:48 AM 35.6 °F 29.2 °F 33.8 °F 93% 30.28 in 3.0 mi West 8.1 mph - N/A   Mostly Cloudy
11:54 AM 35.1 °F 28.6 °F 33.1 °F 92% 30.30 in 3.0 mi West 8.1 mph - N/A   Mostly Cloudy
12:35 PM 39.2 °F 33.6 °F 33.8 °F 81% 30.25 in 9.0 mi West 8.1 mph - N/A   Scattered Clouds
12:54 PM 41.0 °F 34.7 °F 33.1 °F 73% 30.26 in 10.0 mi West 10.4 mph - N/A   Partly Cloudy
1:54 PM 45.0 °F 39.3 °F 33.1 °F 63% 30.23 in 10.0 mi WSW 11.5 mph - N/A   Clear
2:54 PM 46.9 °F - 32.0 °F 56% 30.23 in 10.0 mi WSW 11.5 mph - N/A   Clear
3:54 PM 46.9 °F - 30.9 °F 54% 30.22 in 10.0 mi West 11.5 mph - N/A   Clear
4:54 PM 45.0 °F 40.6 °F 32.0 °F 60% 30.22 in 10.0 mi WSW 8.1 mph - N/A   Clear
5:54 PM 39.0 °F 36.8 °F 30.9 °F 73% 30.22 in 10.0 mi SSW 3.5 mph - N/A   Clear
6:54 PM 35.1 °F 32.2 °F 30.0 °F 82% 30.23 in 10.0 mi WSW 3.5 mph - N/A   Clear
7:54 PM 33.1 °F - 30.0 °F 89% 30.23 in 10.0 mi Calm Calm - N/A   Clear
8:54 PM 30.9 °F - 28.9 °F 92% 30.24 in 10.0 mi Calm Calm - N/A   Clear
9:54 PM 30.0 °F - 27.0 °F 88% 30.24 in 9.0 mi Calm Calm - N/A   Clear
10:54 PM 28.9 °F - 27.0 °F 92% 30.24 in 9.0 mi Calm Calm - N/A   Clear
11:54 PM 28.0 °F - 26.1 °F 92% 30.25 in 9.0 mi Calm Calm - N/A   Clear